• Em Portugal
  • Lista de países
  • Para 7 dias
  • Temperatura da água
  • Mapas de satélite
  • Mapa do tempo
  • Widgets de tempo
  • user-avatar
    Iniciar Sessão

    Previsão horária em Tatinki

    Hoje, 23 Outubro, Terça-feira

    Tempo Temperatura Precipitação Vento Pressão Humidade
    00:00 +3°C° 0 mm 2 m/s 742 mmHg 82%
    01:00 +2°C° 0 mm 2 m/s 741 mmHg 83%
    02:00 +1°C° 0 mm 3 m/s 740 mmHg 83%
    03:00 +1°C° 0 mm 3 m/s 739 mmHg 83%
    04:00 +1°C° 0 mm 3 m/s 739 mmHg 83%
    05:00 +1°C° 0 mm 3 m/s 738 mmHg 83%
    06:00 0°C° 0 mm 4 m/s 738 mmHg 81%
    07:00 +1°C° 0 mm 4 m/s 738 mmHg 79%
    08:00 +1°C° 0 mm 4 m/s 737 mmHg 77%
    09:00 +3°C° 0 mm 5 m/s 737 mmHg 74%
    10:00 +5°C° 0 mm 5 m/s 736 mmHg 71%
    11:00 +6°C° 0 mm 5 m/s 736 mmHg 69%
    12:00 +6°C° 0 mm 5 m/s 735 mmHg 70%
    13:00 +6°C° 0 mm 5 m/s 735 mmHg 72%
    14:00 +6°C° 0 mm 5 m/s 734 mmHg 74%
    15:00 +6°C° 0.1 mm 5 m/s 733 mmHg 77%
    16:00 +5°C° 0.1 mm 5 m/s 733 mmHg 79%
    17:00 +5°C° 0.1 mm 4 m/s 732 mmHg 82%
    18:00 +5°C° 0 mm 4 m/s 732 mmHg 82%
    19:00 +5°C° 0 mm 4 m/s 731 mmHg 83%
    20:00 +5°C° 0 mm 4 m/s 730 mmHg 83%
    21:00 +4°C° 0.1 mm 4 m/s 729 mmHg 83%
    22:00 +4°C° 0.1 mm 4 m/s 729 mmHg 82%
    23:00 +4°C° 0.1 mm 4 m/s 728 mmHg 82%

    Amanhã, 24 Outubro, Quarta-feira

    Tempo Temperatura Precipitação Vento Pressão Humidade
    00:00 +3°C° 0.3 mm 5 m/s 727 mmHg 81%
    01:00 +3°C° 0.3 mm 5 m/s 726 mmHg 81%
    02:00 +3°C° 0.3 mm 5 m/s 725 mmHg 81%
    03:00 +3°C° 0.2 mm 6 m/s 724 mmHg 81%
    04:00 +3°C° 0.2 mm 6 m/s 723 mmHg 81%
    05:00 +3°C° 0.2 mm 6 m/s 722 mmHg 81%
    06:00 +3°C° 0.5 mm 6 m/s 721 mmHg 82%
    07:00 +4°C° 0.5 mm 7 m/s 721 mmHg 83%
    08:00 +4°C° 0.5 mm 7 m/s 720 mmHg 84%
    09:00 +4°C° 0.3 mm 7 m/s 719 mmHg 83%
    10:00 +5°C° 0.3 mm 7 m/s 719 mmHg 83%
    11:00 +6°C° 0.3 mm 7 m/s 718 mmHg 82%
    12:00 +6°C° 0.2 mm 7 m/s 718 mmHg 80%
    13:00 +7°C° 0.2 mm 6 m/s 718 mmHg 79%
    14:00 +7°C° 0.2 mm 6 m/s 717 mmHg 77%
    15:00 +6°C° 0.2 mm 5 m/s 717 mmHg 79%
    16:00 +6°C° 0.2 mm 5 m/s 718 mmHg 81%
    17:00 +5°C° 0.2 mm 4 m/s 718 mmHg 84%
    18:00 +5°C° 0 mm 4 m/s 718 mmHg 85%
    19:00 +4°C° 0 mm 4 m/s 718 mmHg 86%
    20:00 +4°C° 0 mm 4 m/s 719 mmHg 88%
    21:00 +4°C° 0 mm 4 m/s 719 mmHg 89%
    22:00 +3°C° 0 mm 3 m/s 719 mmHg 90%
    23:00 +2°C° 0 mm 3 m/s 719 mmHg 91%

    Depois de amanhã, 25 Outubro, Quinta-feira

    Tempo Temperatura Precipitação Vento Pressão Humidade
    00:00 +2°C° 0 mm 3 m/s 719 mmHg 92%
    01:00 +2°C° 0 mm 3 m/s 719 mmHg 92%
    02:00 +1°C° 0 mm 3 m/s 719 mmHg 93%
    03:00 +1°C° 0 mm 3 m/s 719 mmHg 93%
    04:00 0°C° 0 mm 4 m/s 719 mmHg 93%
    05:00 0°C° 0 mm 4 m/s 719 mmHg 93%
    06:00 0°C° 0.1 mm 5 m/s 720 mmHg 91%
    07:00 +1°C° 0.1 mm 5 m/s 720 mmHg 89%
    08:00 +1°C° 0.1 mm 6 m/s 720 mmHg 87%
    09:00 +1°C° 0.5 mm 6 m/s 720 mmHg 86%
    10:00 +2°C° 0.5 mm 6 m/s 720 mmHg 84%
    11:00 +3°C° 0.5 mm 6 m/s 720 mmHg 83%
    12:00 +3°C° 0.4 mm 6 m/s 721 mmHg 82%
    13:00 +3°C° 0.4 mm 6 m/s 721 mmHg 80%
    14:00 +3°C° 0.4 mm 6 m/s 722 mmHg 79%
    15:00 +3°C° 0.1 mm 5 m/s 722 mmHg 80%
    16:00 +2°C° 0.1 mm 5 m/s 723 mmHg 81%
    17:00 +2°C° 0.1 mm 5 m/s 723 mmHg 82%
    18:00 +1°C° 0.1 mm 4 m/s 724 mmHg 83%
    19:00 +1°C° 0.1 mm 4 m/s 724 mmHg 83%
    20:00 +1°C° 0.1 mm 4 m/s 725 mmHg 84%
    21:00 0°C° 0.1 mm 4 m/s 725 mmHg 85%
    22:00 +1°C° 0.1 mm 3 m/s 725 mmHg 85%
    23:00 +1°C° 0.1 mm 3 m/s 726 mmHg 85%

    26 Outubro, Sexta-feira

    Tempo Temperatura Precipitação Vento Pressão Humidade
    00:00 +1°C° 0 mm 3 m/s 726 mmHg 85%
    01:00 0°C° 0 mm 3 m/s 726 mmHg 85%
    02:00 0°C° 0 mm 3 m/s 727 mmHg 85%
    03:00 0°C° 0 mm 3 m/s 727 mmHg 85%
    04:00 +1°C° 0 mm 3 m/s 728 mmHg 84%
    05:00 +1°C° 0 mm 3 m/s 728 mmHg 84%
    06:00 +1°C° 0 mm 3 m/s 728 mmHg 84%
    07:00 0°C° 0 mm 4 m/s 729 mmHg 84%
    08:00 0°C° 0 mm 4 m/s 729 mmHg 84%
    09:00 +1°C° 0 mm 4 m/s 730 mmHg 79%
    10:00 +3°C° 0 mm 4 m/s 730 mmHg 75%
    11:00 +3°C° 0 mm 5 m/s 730 mmHg 70%
    12:00 +3°C° 0 mm 5 m/s 730 mmHg 69%
    13:00 +3°C° 0 mm 5 m/s 731 mmHg 68%
    14:00 +3°C° 0 mm 5 m/s 731 mmHg 67%
    15:00 +3°C° 0.2 mm 5 m/s 731 mmHg 72%
    16:00 +3°C° 0.2 mm 4 m/s 731 mmHg 76%
    17:00 +3°C° 0.2 mm 4 m/s 732 mmHg 80%
    18:00 +1°C° 0.1 mm 4 m/s 732 mmHg 83%
    19:00 +1°C° 0.1 mm 4 m/s 733 mmHg 85%
    20:00 +1°C° 0.1 mm 4 m/s 733 mmHg 87%
    21:00 0°C° 0 mm 4 m/s 733 mmHg 89%
    22:00 0°C° 0 mm 4 m/s 734 mmHg 91%
    23:00 -1°C° 0 mm 4 m/s 734 mmHg 92%

    27 Outubro, Sábado

    Tempo Temperatura Precipitação Vento Pressão Humidade
    00:00 -1°C° 0 mm 4 m/s 735 mmHg 92%
    01:00 -1°C° 0 mm 4 m/s 735 mmHg 92%
    02:00 -2°C° 0 mm 4 m/s 736 mmHg 92%
    03:00 -2°C° 0 mm 4 m/s 736 mmHg 93%
    04:00 -2°C° 0 mm 4 m/s 737 mmHg 93%
    05:00 -2°C° 0 mm 4 m/s 737 mmHg 93%
    06:00 -1°C° 0 mm 4 m/s 737 mmHg 91%
    07:00 -1°C° 0 mm 4 m/s 737 mmHg 89%
    08:00 0°C° 0 mm 5 m/s 737 mmHg 87%
    09:00 +1°C° 0 mm 5 m/s 737 mmHg 82%
    10:00 +2°C° 0 mm 6 m/s 737 mmHg 77%
    11:00 +4°C° 0 mm 7 m/s 737 mmHg 72%
    12:00 +4°C° 0 mm 7 m/s 736 mmHg 73%
    13:00 +4°C° 0 mm 7 m/s 736 mmHg 74%
    14:00 +5°C° 0 mm 8 m/s 735 mmHg 75%
    15:00 +5°C° 0.1 mm 8 m/s 734 mmHg 76%
    16:00 +5°C° 0.1 mm 8 m/s 734 mmHg 77%
    17:00 +5°C° 0.1 mm 8 m/s 733 mmHg 79%
    18:00 +6°C° 0.1 mm 8 m/s 733 mmHg 78%
    19:00 +6°C° 0.1 mm 8 m/s 733 mmHg 77%
    20:00 +7°C° 0.1 mm 8 m/s 732 mmHg 77%
    21:00 +6°C° 0.1 mm 7 m/s 732 mmHg 79%
    22:00 +6°C° 0.1 mm 7 m/s 733 mmHg 81%
    23:00 +7°C° 0.1 mm 6 m/s 733 mmHg 83%

    28 Outubro, Domingo

    Tempo Temperatura Precipitação Vento Pressão Humidade
    00:00 +7°C° 0 mm 6 m/s 733 mmHg 85%
    01:00 +6°C° 0 mm 5 m/s 734 mmHg 87%
    02:00 +5°C° 0 mm 5 m/s 734 mmHg 89%
    03:00 +5°C° 0 mm 5 m/s 734 mmHg 88%
    04:00 +5°C° 0 mm 5 m/s 735 mmHg 87%
    05:00 +3°C° 0 mm 5 m/s 735 mmHg 86%
    06:00 +3°C° 0 mm 5 m/s 736 mmHg 85%
    07:00 +3°C° 0 mm 5 m/s 737 mmHg 84%
    08:00 +3°C° 0 mm 5 m/s 737 mmHg 83%
    09:00 +4°C° 0 mm 4 m/s 738 mmHg 79%
    10:00 +5°C° 0 mm 4 m/s 739 mmHg 75%
    11:00 +5°C° 0 mm 4 m/s 740 mmHg 72%
    12:00 +5°C° 0 mm 3 m/s 740 mmHg 70%
    13:00 +5°C° 0 mm 3 m/s 740 mmHg 68%
    14:00 +6°C° 0 mm 2 m/s 741 mmHg 67%
    15:00 +6°C° 0 mm 2 m/s 741 mmHg 69%
    16:00 +6°C° 0 mm 1 m/s 742 mmHg 71%
    17:00 +6°C° 0 mm 1 m/s 742 mmHg 74%
    18:00 +6°C° 0.1 mm 1 m/s 742 mmHg 74%
    19:00 +5°C° 0.1 mm 1 m/s 743 mmHg 75%
    20:00 +4°C° 0.1 mm 2 m/s 743 mmHg 76%
    21:00 +4°C° 0.1 mm 2 m/s 743 mmHg 77%
    22:00 +4°C° 0.1 mm 2 m/s 743 mmHg 78%
    23:00 +3°C° 0.1 mm 3 m/s 743 mmHg 78%

    29 Outubro, Segunda-feira

    Tempo Temperatura Precipitação Vento Pressão Humidade
    00:00 +3°C° 0.1 mm 3 m/s 743 mmHg 79%
    01:00 +3°C° 0.1 mm 4 m/s 743 mmHg 80%
    02:00 +3°C° 0.1 mm 4 m/s 744 mmHg 81%
    03:00 +2°C° 0.1 mm 5 m/s 743 mmHg 82%
    04:00 +2°C° 0.1 mm 5 m/s 743 mmHg 82%
    05:00 +2°C° 0.1 mm 5 m/s 743 mmHg 83%
    06:00 +2°C° 0.3 mm 5 m/s 743 mmHg 84%
    07:00 +2°C° 0.3 mm 5 m/s 743 mmHg 86%
    08:00 +3°C° 0.3 mm 5 m/s 743 mmHg 87%
    09:00 +3°C° 0.1 mm 5 m/s 742 mmHg 88%
    10:00 +5°C° 0.1 mm 5 m/s 742 mmHg 89%
    11:00 +5°C° 0.1 mm 4 m/s 742 mmHg 90%
    12:00 +6°C° 0 mm 4 m/s 742 mmHg 90%
    13:00 +7°C° 0 mm 4 m/s 742 mmHg 91%
    14:00 +8°C° 0 mm 4 m/s 741 mmHg 92%
    15:00 +8°C° 0 mm 4 m/s 741 mmHg 93%
    16:00 +8°C° 0 mm 4 m/s 741 mmHg 94%
    17:00 +10°C° 0 mm 4 m/s 741 mmHg 95%
    18:00 +10°C° 0 mm 4 m/s 741 mmHg 94%
    19:00 +8°C° 0 mm 4 m/s 741 mmHg 93%
    20:00 +8°C° 0 mm 4 m/s 741 mmHg 92%
    21:00 +8°C° 0 mm 4 m/s 741 mmHg 89%
    22:00 +8°C° 0 mm 4 m/s 741 mmHg 86%
    23:00 +8°C° 0 mm 4 m/s 741 mmHg 84%
    Mostrar mais